Location: Namasale
(1.5000°N, 32.6167°E)
Time: 00:04:16
(UTC+00:00)

Vanguard 3 - Pass Details

Date: 09 December 2021
Orbit: 508 x 3260 km, 33.3° (Epoch: 27 January)

Event Time Altitude Azimuth Distance (km) Brightness Sun altitude
Exits shadow 23:27:13 15° 30° (NNE) 5,731 11.3 -56.7°
Drops below altitude 10° 23:30:03 10° 36° (NE) 6,191 11.5 -56.2°
Sets 23:35:46 0° 44° (NE) 7,144 12.0 -55.1°
